This is the latest recevied weather packets stored in our database for station/object DM8MH-13. If no packets are shown the sender has not sent any weather packets the latest 10 day(s).
| Time | Temp. | Humidity | Pressure | Rain* | Wind** | Luminosity | Snow |
|---|---|---|---|---|---|---|---|
| 1777870871 | 15° C | 74% | 1012.3 hPa | 0 mm | - | 54 W/m² | - |
| 1777870271 | 15° C | 73% | 1012.1 hPa | 0 mm | - | 52 W/m² | - |
| 1777869671 | 15° C | 72% | 1012.1 hPa | 0 mm | - | 22 W/m² | - |
| 1777869072 | 15° C | 72% | 1012 hPa | 0 mm | - | 17 W/m² | - |
| 1777868472 | 15° C | 72% | 1011.7 hPa | 0 mm | - | 16 W/m² | - |
| 1777867871 | 15° C | 73% | 1011.7 hPa | 0 mm | - | 16 W/m² | - |
| 1777867271 | 15° C | 74% | 1011.7 hPa | 0 mm | - | 11 W/m² | - |
| 1777866671 | 15° C | 75% | 1011.7 hPa | 0 mm | - | 0 W/m² | - |
| 1777866071 | 15° C | 76% | 1011.8 hPa | 0 mm | - | 0 W/m² | - |
| 1777865472 | 15° C | 75% | 1011.8 hPa | 0 mm | - | 0 W/m² | - |
| 1777864872 | 15° C | 75% | 1011.8 hPa | 0 mm | - | 0 W/m² | - |
| 1777864271 | 15° C | 74% | 1012 hPa | 0 mm | - | 0 W/m² | - |
| 1777863672 | 15° C | 74% | 1012.1 hPa | 0 mm | - | 0 W/m² | - |
| 1777863071 | 15° C | 74% | 1012 hPa | 0 mm | - | 0 W/m² | - |
| 1777862471 | 15.56° C | 74% | 1012 hPa | 0 mm | - | 0 W/m² | - |
| 1777861872 | 15.56° C | 74% | 1012.1 hPa | 0 mm | - | 0 W/m² | - |
| 1777861272 | 15.56° C | 72% | 1012 hPa | 0 mm | - | 0 W/m² | - |
| 1777860672 | 15.56° C | 72% | 1012 hPa | 0 mm | - | 0 W/m² | - |
| 1777860071 | 15.56° C | 72% | 1012 hPa | 0 mm | - | 0 W/m² | - |
| 1777859471 | 15.56° C | 71% | 1011.8 hPa | 0 mm | - | 0 W/m² | - |
| 1777858872 | 15.56° C | 72% | 1011.8 hPa | 0.25 mm | - | 0 W/m² | - |
| 1777858271 | 15.56° C | 71% | 1011.6 hPa | 0.25 mm | - | 0 W/m² | - |
| 1777857671 | 15.56° C | 72% | 1011.8 hPa | 0.25 mm | - | 0 W/m² | - |
| 1777857071 | 16.11° C | 71% | 1011.8 hPa | 0.25 mm | - | 0 W/m² | - |
| 1777856471 | 16.11° C | 70% | 1011.9 hPa | 0.25 mm | - | 0 W/m² | - |
* Rain latest hour (hover to see other rain measurements)
** Current wind speed in m/s (hover to see current wind gust speed)